START_TIME,STEP,MOV.,M6,t_acc.,M7,t_acc.,M19,t_acc.,H36,t_acc.
1979-07-21 21:00:26.770 ,0,0,0.,12.0,0.,12.0,0.,12.0,0.,12.0
1979-07-21 21:00:38.770 ,0,0,0.,12.0,0.,12.0,0.,12.0,0.,12.0
1979-07-21 21:00:50.770 ,0,1,0.,12.0,0.,12.0,0.,12.0,0.,12.0
1979-07-21 21:01:02.770 ,0,1,0.,12.0,0.,12.0,0.,12.0,0.,12.0
1979-07-21 21:01:14.770 ,0,0,0.,12.0,0.,12.0,0.,12.0,0.,12.0
1979-07-21 21:01:26.770 ,0,0,0.,12.0,0.,12.0,0.,12.0,0.,12.0
1979-07-21 21:01:38.770 ,1,1,0.,12.0,0.,12.0,0.,12.0,0.,12.0
1979-07-21 21:01:50.770 ,1,1,0.,12.0,0.,12.0,0.,12.0,0.,12.0
1979-07-21 21:02:02.770 ,1,0,0.,12.0,0.,12.0,0.,12.0,0.,12.0
1979-07-21 21:02:14.770 ,1,0,0.,12.0,0.,12.0,0.,12.0,0.,12.0
1979-07-21 21:02:26.770 ,2,1,0.,12.0,0.,12.0,0.,12.0,0.,12.0
1979-07-21 21:02:38.770 ,2,1,0.,12.0,0.,12.0,0.,12.0,0.,12.0
1979-07-21 21:02:50.770 ,2,0,0.,12.0,0.,12.0,0.,12.0,0.,12.0
1979-07-21 21:03:02.770 ,2,0,0.,12.0,0.,12.0,0.,12.0,0.,12.0
1979-07-21 21:03:14.770 ,3,1,0.,12.0,0.,12.0,0.,12.0,0.,12.0
1979-07-21 21:03:26.770 ,3,1,0.,12.0,0.,12.0,0.,12.0,0.,12.0
1979-07-21 21:03:38.770 ,3,0,0.,12.0,0.,12.0,0.,12.0,0.,12.0
1979-07-21 21:03:50.770 ,3,0,0.,12.0,0.,12.0,0.,12.0,0.,12.0
1979-07-21 21:04:02.770 ,4,1,0.,12.0,0.,12.0,0.,12.0,0.,12.0
1979-07-21 21:04:14.770 ,4,1,0.,12.0,0.,12.0,0.,12.0,0.,12.0
1979-07-21 21:04:26.770 ,4,0,0.,12.0,0.,12.0,0.,12.0,0.,12.0
1979-07-21 21:04:38.770 ,4,0,0.,12.0,0.,12.0,0.,12.0,0.,12.0
1979-07-21 21:04:50.770 ,5,1,0.,12.0,0.,12.0,0.,12.0,0.,12.0
1979-07-21 21:05:02.770 ,5,1,0.,12.0,0.,12.0,0.,12.0,0.,12.0
1979-07-21 21:05:14.770 ,5,0,0.,12.0,0.,12.0,0.,12.0,0.,12.0
1979-07-21 21:05:26.770 ,5,0,0.,12.0,0.,12.0,0.,12.0,0.,12.0
1979-07-21 21:05:38.770 ,6,1,1.,12.0,0.,12.0,0.,12.0,0.,12.0
1979-07-21 21:05:50.770 ,6,1,0.,12.0,0.,12.0,0.,12.0,0.,12.0
1979-07-21 21:06:02.770 ,6,0,0.,12.0,0.,12.0,0.,12.0,0.,12.0
1979-07-21 21:06:14.770 ,6,0,0.,12.0,0.,12.0,0.,12.0,0.,12.0
1979-07-21 21:06:26.770 ,7,0,0.,12.0,0.,12.0,0.,12.0,0.,12.0
1979-07-21 21:06:38.770 ,7,0,0.,12.0,0.,12.0,0.,12.0,0.,12.0
1979-07-21 21:06:50.770 ,7,0,0.,12.0,0.,12.0,0.,12.0,0.,12.0
1979-07-21 21:07:02.770 ,7,0,0.,12.0,0.,12.0,0.,12.0,0.,12.0
1979-07-21 21:07:14.770 ,4,1,0.,12.0,0.,12.0,0.,12.0,0.,12.0
1979-07-21 21:07:26.770 ,4,1,0.,12.0,0.,12.0,0.,12.0,0.,12.0
1979-07-21 21:07:38.770 ,0,1,0.,12.0,0.,12.0,0.,12.0,0.,12.0
1979-07-21 21:07:50.770 ,0,1,0.,12.0,0.,12.0,0.,12.0,0.,12.0
1979-07-21 21:08:02.770 ,3,1,0.,12.0,0.,12.0,0.,12.0,0.,12.0
1979-07-21 21:08:14.770 ,3,1,0.,12.0,0.,12.0,0.,12.0,0.,12.0
1979-07-21 21:08:26.770 ,7,1,0.,12.0,0.,12.0,0.,12.0,0.,12.0
1979-07-21 21:08:38.770 ,7,1,0.,12.0,0.,12.0,0.,12.0,0.,12.0
